Погода в Трали

Ирландия     52°16′05″N   9°42′01″W
темп.,
°C
ветер,
м/с
пор.,
м/с
влажн.,
%
обл.,
%
осадки,
мм/ч
давл.,
гПа
погр.,
м
18 мая, вт
вт1801:00+6ю229597 0.3 101142
04:00+6ююв119442 0.0 101139
07:00+6ю11945 0.0 101154
10:00+11зюз23725 0.0 1012814
13:00+13зсз346511 0.3 10131183
16:00+12сз46679 0.3 10141204
19:00+11зсз47705 0.4 10161169
22:00+7з34875 0.1 1017143
19 мая, ср
ср1901:00+6юз23935 0.2 101889
04:00+6ююз22955 0.1 101857
07:00+7ю22945 0.1 101981
10:00+12зюз347097 0.0 1020945
13:00+13з346399 0.1 10201241
16:00+13з3463100 0.1 10201146
19:00+12юз3570100 0.1 1019838
22:00+9ююв2379100 0.0 101878
20 мая, чт
чт2001:00+7юв3995100 0.8 1014660
04:00+9юв10209399 1.4 10061084
07:00+12ю81689100 2.1 10001348
10:00+10ю81892100 6.9 9941552
13:00+12ююз10188669 8.5 9911584
16:00+11юз122189100 1.6 9891687
19:00+10зюз11199197 2.7 9891296
22:00+10з121795100 4.6 9911159
21 мая, пт
пт2101:00+10з91595100 6.3 9941148
04:00+9зсз81296100 1.6 994930
07:00+9сз91495100 3.8 9961102
10:00+10сз8119225 0.9 9991044
13:00+10сз8118997 1.9 1000932
16:00+10ссз9128999 0.8 1002901
19:00+9ссз9128296 1.1 10051126
22:00+8ссз61079100 0.2 1007771
22 мая, сб
сб2201:00+7с6108230 0.7 1009612
04:00+5с378388 0.3 1010276
07:00+7с3777100 0.4 1011433
10:00+8с4676100 0.5 10131023
13:00+10сз455444 0.6 10131672
16:00+10зсз4556100 0.0 10141345
19:00+10з4666100 0.1 10131324
22:00+7юз3777100 0.1 1012320